Time,TemperatureF,DewpointF,PressureIn,WindDirection,WindDirectionDegrees,WindSpeedMPH,WindSpeedGustMPH,Humidity,HourlyPrecipIn,Conditions,Clouds,dailyrainin,SolarRadiationWatts/m^2,SoftwareType,DateUTC
2013-08-13 00:02:00,82.9,77.0,30.04,East,89,0.0,-999.0,83,-99.99,,,0.00,0,weatherlink.com 1.10,2013-08-13 04:02:00,
2013-08-13 00:17:00,82.1,77.0,30.04,East,90,0.0,-999.0,83,-99.99,,,0.00,0,weatherlink.com 1.10,2013-08-13 04:17:00,
2013-08-13 00:32:00,82.0,76.0,30.04,East,84,0.0,-999.0,82,-99.99,,,0.00,0,weatherlink.com 1.10,2013-08-13 04:32:00,
2013-08-13 00:47:00,82.2,76.0,30.03,East,83,0.0,-999.0,80,-99.99,,,0.00,0,weatherlink.com 1.10,2013-08-13 04:47:00,
2013-08-13 01:02:00,82.3,76.0,30.03,East,86,2.0,-999.0,80,-99.99,,,0.00,0,weatherlink.com 1.10,2013-08-13 05:02:00,
2013-08-13 01:17:00,82.3,76.0,30.03,East,86,0.0,-999.0,80,-99.99,,,0.00,0,weatherlink.com 1.10,2013-08-13 05:17:00,
2013-08-13 01:33:00,82.3,75.0,30.03,East,80,0.0,-999.0,79,-99.99,,,0.00,0,weatherlink.com 1.10,2013-08-13 05:33:00,
2013-08-13 01:48:00,82.3,76.0,30.02,East,88,0.0,-999.0,80,-99.99,,,0.00,0,weatherlink.com 1.10,2013-08-13 05:48:00,
2013-08-13 02:03:00,82.3,76.0,30.02,East,90,0.0,-999.0,80,-99.99,,,0.00,0,weatherlink.com 1.10,2013-08-13 06:03:00,
2013-08-13 02:18:00,82.3,76.0,30.02,East,88,0.0,-999.0,81,-99.99,,,0.00,0,weatherlink.com 1.10,2013-08-13 06:18:00,
2013-08-13 02:33:00,82.5,77.0,30.01,East,82,0.0,-999.0,82,-99.99,,,0.00,0,weatherlink.com 1.10,2013-08-13 06:33:00,
2013-08-13 02:48:00,82.6,77.0,30.01,East,80,2.0,-999.0,82,-99.99,,,0.00,0,weatherlink.com 1.10,2013-08-13 06:48:00,
2013-08-13 03:03:00,82.5,77.0,30.01,East,87,1.0,-999.0,82,-99.99,,,0.00,0,weatherlink.com 1.10,2013-08-13 07:03:00,
2013-08-13 03:18:00,82.3,76.0,30.00,East,86,0.0,-999.0,81,-99.99,,,0.00,0,weatherlink.com 1.10,2013-08-13 07:18:00,
2013-08-13 03:33:00,82.2,76.0,30.00,East,90,0.0,-999.0,82,-99.99,,,0.00,0,weatherlink.com 1.10,2013-08-13 07:33:00,
2013-08-13 03:48:00,82.0,76.0,30.00,East,90,0.0,-999.0,83,-99.99,,,0.00,0,weatherlink.com 1.10,2013-08-13 07:48:00,
2013-08-13 04:03:00,81.8,76.0,30.00,East,86,0.0,-999.0,82,-99.99,,,0.00,0,weatherlink.com 1.10,2013-08-13 08:03:00,
2013-08-13 04:18:00,81.9,76.0,30.00,East,84,0.0,-999.0,83,-99.99,,,0.00,0,weatherlink.com 1.10,2013-08-13 08:18:00,
2013-08-13 04:33:00,81.8,76.0,30.00,East,94,0.0,-999.0,83,-99.99,,,0.00,0,weatherlink.com 1.10,2013-08-13 08:33:00,
2013-08-13 04:48:00,80.2,76.0,30.00,East,94,0.0,-999.0,86,-99.99,,,0.00,0,weatherlink.com 1.10,2013-08-13 08:48:00,
2013-08-13 05:03:00,79.6,76.0,30.00,East,94,0.0,-999.0,87,-99.99,,,0.00,0,weatherlink.com 1.10,2013-08-13 09:03:00,
2013-08-13 05:18:00,78.9,75.0,30.00,East,94,0.0,-999.0,88,-99.99,,,0.00,0,weatherlink.com 1.10,2013-08-13 09:18:00,
2013-08-13 05:33:00,78.4,75.0,30.00,East,94,0.0,-999.0,89,-99.99,,,0.00,0,weatherlink.com 1.10,2013-08-13 09:33:00,
2013-08-13 05:48:00,78.0,75.0,30.00,East,94,0.0,-999.0,90,-99.99,,,0.00,0,weatherlink.com 1.10,2013-08-13 09:48:00,
2013-08-13 06:03:00,78.0,75.0,30.01,East,94,0.0,-999.0,90,-99.99,,,0.00,0,weatherlink.com 1.10,2013-08-13 10:03:00,
2013-08-13 06:18:00,77.9,75.0,30.01,East,94,0.0,-999.0,91,-99.99,,,0.00,0,weatherlink.com 1.10,2013-08-13 10:18:00,
2013-08-13 06:33:00,77.8,75.0,30.01,East,95,0.0,-999.0,92,-99.99,,,0.00,0,weatherlink.com 1.10,2013-08-13 10:33:00,
2013-08-13 06:48:00,77.8,75.0,30.01,East,95,0.0,-999.0,92,-99.99,,,0.00,0,weatherlink.com 1.10,2013-08-13 10:48:00,
2013-08-13 07:03:00,77.7,75.0,30.01,East,95,0.0,-999.0,92,-99.99,,,0.00,7,weatherlink.com 1.10,2013-08-13 11:03:00,
2013-08-13 07:18:00,77.6,76.0,30.01,East,95,0.0,-999.0,93,-99.99,,,0.00,26,weatherlink.com 1.10,2013-08-13 11:18:00,
2013-08-13 07:33:00,78.0,76.0,30.01,East,95,0.0,-999.0,93,-99.99,,,0.00,79,weatherlink.com 1.10,2013-08-13 11:33:00,
2013-08-13 07:48:00,78.9,77.0,30.02,East,95,0.0,-999.0,93,-99.99,,,0.00,121,weatherlink.com 1.10,2013-08-13 11:48:00,
2013-08-13 08:03:00,79.7,78.0,30.02,East,95,0.0,-999.0,94,-99.99,,,0.00,60,weatherlink.com 1.10,2013-08-13 12:03:00,
2013-08-13 08:18:00,79.5,77.0,30.02,East,95,0.0,-999.0,93,-99.99,,,0.00,218,weatherlink.com 1.10,2013-08-13 12:18:00,
2013-08-13 08:33:00,79.8,78.0,30.02,East,95,0.0,-999.0,93,-99.99,,,0.00,267,weatherlink.com 1.10,2013-08-13 12:33:00,
2013-08-13 08:48:00,80.1,78.0,30.02,ESE,121,0.0,-999.0,92,-99.99,,,0.00,95,weatherlink.com 1.10,2013-08-13 12:48:00,
2013-08-13 09:03:00,82.5,79.0,30.02,East,82,3.0,-999.0,88,-99.99,,,0.00,388,weatherlink.com 1.10,2013-08-13 13:03:00,
2013-08-13 09:18:00,83.7,78.0,30.02,ESE,103,2.0,-999.0,84,-99.99,,,0.00,432,weatherlink.com 1.10,2013-08-13 13:18:00,
2013-08-13 09:33:00,84.6,79.0,30.02,ESE,120,0.0,-999.0,82,-99.99,,,0.00,483,weatherlink.com 1.10,2013-08-13 13:33:00,
2013-08-13 09:48:00,85.1,78.0,30.02,ENE,78,3.0,-999.0,79,-99.99,,,0.00,555,weatherlink.com 1.10,2013-08-13 13:48:00,
2013-08-13 10:03:00,85.6,78.0,30.03,SE,134,0.0,-999.0,77,-99.99,,,0.00,621,weatherlink.com 1.10,2013-08-13 14:03:00,
2013-08-13 10:19:00,85.5,78.0,30.02,ESE,106,0.0,-999.0,78,-99.99,,,0.00,705,weatherlink.com 1.10,2013-08-13 14:19:00,
2013-08-13 10:34:00,86.9,78.0,30.02,ESE,103,0.0,-999.0,75,-99.99,,,0.00,195,weatherlink.com 1.10,2013-08-13 14:34:00,
2013-08-13 10:49:00,86.2,78.0,30.02,ESE,103,0.0,-999.0,76,-99.99,,,0.00,165,weatherlink.com 1.10,2013-08-13 14:49:00,
2013-08-13 11:04:00,87.0,78.0,30.02,East,82,2.0,-999.0,74,-99.99,,,0.00,795,weatherlink.com 1.10,2013-08-13 15:04:00,
2013-08-13 11:19:00,88.0,78.0,30.02,ESE,109,0.0,-999.0,72,-99.99,,,0.00,812,weatherlink.com 1.10,2013-08-13 15:19:00,
2013-08-13 11:34:00,88.1,78.0,30.02,East,100,0.0,-999.0,71,-99.99,,,0.00,817,weatherlink.com 1.10,2013-08-13 15:34:00,
2013-08-13 11:49:00,88.1,77.0,30.02,East,96,6.0,-999.0,70,-99.99,,,0.00,851,weatherlink.com 1.10,2013-08-13 15:49:00,
2013-08-13 12:04:00,88.1,77.0,30.02,ENE,78,7.0,-999.0,70,-99.99,,,0.00,872,weatherlink.com 1.10,2013-08-13 16:04:00,
2013-08-13 12:19:00,88.7,77.0,30.02,East,92,1.0,-999.0,68,-99.99,,,0.00,909,weatherlink.com 1.10,2013-08-13 16:19:00,
2013-08-13 12:34:00,88.9,77.0,30.02,East,85,0.0,-999.0,68,-99.99,,,0.00,947,weatherlink.com 1.10,2013-08-13 16:34:00,
2013-08-13 12:49:00,89.2,78.0,30.02,ESE,112,2.0,-999.0,69,-99.99,,,0.00,893,weatherlink.com 1.10,2013-08-13 16:49:00,
2013-08-13 13:04:00,88.0,77.0,30.02,ENE,76,0.0,-999.0,69,-99.99,,,0.00,914,weatherlink.com 1.10,2013-08-13 17:04:00,
2013-08-13 13:19:00,90.1,78.0,30.01,SSE,147,1.0,-999.0,67,-99.99,,,0.00,928,weatherlink.com 1.10,2013-08-13 17:19:00,
2013-08-13 13:34:00,89.3,77.0,30.01,NE,52,2.0,-999.0,67,-99.99,,,0.00,928,weatherlink.com 1.10,2013-08-13 17:34:00,
2013-08-13 13:49:00,89.3,77.0,30.01,ENE,69,0.0,-999.0,67,-99.99,,,0.00,926,weatherlink.com 1.10,2013-08-13 17:49:00,
2013-08-13 14:04:00,90.5,79.0,30.01,ESE,109,0.0,-999.0,68,-99.99,,,0.00,898,weatherlink.com 1.10,2013-08-13 18:04:00,
2013-08-13 14:19:00,90.1,78.0,30.00,East,88,2.0,-999.0,67,-99.99,,,0.00,900,weatherlink.com 1.10,2013-08-13 18:19:00,
2013-08-13 14:34:00,90.4,78.0,30.00,SE,128,0.0,-999.0,66,-99.99,,,0.00,831,weatherlink.com 1.10,2013-08-13 18:34:00,
2013-08-13 14:49:00,89.4,78.0,29.99,ESE,123,2.0,-999.0,70,-99.99,,,0.00,868,weatherlink.com 1.10,2013-08-13 18:49:00,
2013-08-13 15:04:00,89.3,78.0,29.99,ENE,67,0.0,-999.0,69,-99.99,,,0.00,860,weatherlink.com 1.10,2013-08-13 19:04:00,
2013-08-13 15:19:00,90.2,77.0,29.98,ENE,77,0.0,-999.0,65,-99.99,,,0.00,819,weatherlink.com 1.10,2013-08-13 19:19:00,
2013-08-13 15:34:00,89.7,78.0,29.98,SE,134,0.0,-999.0,68,-99.99,,,0.00,802,weatherlink.com 1.10,2013-08-13 19:34:00,
2013-08-13 15:49:00,89.5,77.0,29.98,East,87,0.0,-999.0,67,-99.99,,,0.00,754,weatherlink.com 1.10,2013-08-13 19:49:00,
2013-08-13 16:04:00,90.5,78.0,29.98,SE,124,0.0,-999.0,67,-99.99,,,0.00,721,weatherlink.com 1.10,2013-08-13 20:04:00,
2013-08-13 16:19:00,88.9,76.0,29.98,ESE,111,5.0,-999.0,66,-99.99,,,0.00,677,weatherlink.com 1.10,2013-08-13 20:19:00,
2013-08-13 16:34:00,89.9,77.0,29.97,East,85,0.0,-999.0,65,-99.99,,,0.00,640,weatherlink.com 1.10,2013-08-13 20:34:00,
2013-08-13 16:49:00,89.7,76.0,29.97,SE,138,4.0,-999.0,65,-99.99,,,0.00,599,weatherlink.com 1.10,2013-08-13 20:49:00,
2013-08-13 17:04:00,89.6,76.0,29.96,ESE,110,5.0,-999.0,65,-99.99,,,0.00,541,weatherlink.com 1.10,2013-08-13 21:04:00,
2013-08-13 17:19:00,88.8,77.0,29.96,East,84,2.0,-999.0,68,-99.99,,,0.00,496,weatherlink.com 1.10,2013-08-13 21:19:00,
2013-08-13 17:34:00,88.6,76.0,29.96,SSE,147,1.0,-999.0,67,-99.99,,,0.00,446,weatherlink.com 1.10,2013-08-13 21:34:00,
2013-08-13 17:49:00,88.3,77.0,29.96,ENE,67,1.0,-999.0,69,-99.99,,,0.00,401,weatherlink.com 1.10,2013-08-13 21:49:00,
2013-08-13 18:04:00,88.3,76.0,29.96,SE,134,0.0,-999.0,68,-99.99,,,0.00,343,weatherlink.com 1.10,2013-08-13 22:04:00,
2013-08-13 18:19:00,88.0,76.0,29.97,East,88,0.0,-999.0,67,-99.99,,,0.00,292,weatherlink.com 1.10,2013-08-13 22:19:00,
2013-08-13 18:34:00,87.7,75.0,29.97,SSE,160,0.0,-999.0,67,-99.99,,,0.00,236,weatherlink.com 1.10,2013-08-13 22:34:00,
2013-08-13 18:49:00,87.1,74.0,29.97,ENE,65,0.0,-999.0,66,-99.99,,,0.00,176,weatherlink.com 1.10,2013-08-13 22:49:00,
2013-08-13 19:04:00,86.7,75.0,29.96,SE,131,5.0,-999.0,69,-99.99,,,0.00,113,weatherlink.com 1.10,2013-08-13 23:04:00,
2013-08-13 19:19:00,86.0,75.0,29.96,SSE,163,0.0,-999.0,70,-99.99,,,0.00,25,weatherlink.com 1.10,2013-08-13 23:19:00,
2013-08-13 19:34:00,85.1,75.0,29.96,SE,136,0.0,-999.0,72,-99.99,,,0.00,12,weatherlink.com 1.10,2013-08-13 23:34:00,
2013-08-13 19:49:00,84.4,75.0,29.96,East,86,0.0,-999.0,74,-99.99,,,0.00,0,weatherlink.com 1.10,2013-08-13 23:49:00,
2013-08-13 20:04:00,83.8,75.0,29.97,SE,135,0.0,-999.0,75,-99.99,,,0.00,0,weatherlink.com 1.10,2013-08-14 00:04:00,
2013-08-13 20:19:00,83.4,75.0,29.98,ESE,119,1.0,-999.0,76,-99.99,,,0.00,0,weatherlink.com 1.10,2013-08-14 00:19:00,
2013-08-13 20:34:00,83.1,75.0,29.99,ESE,117,1.0,-999.0,77,-99.99,,,0.00,0,weatherlink.com 1.10,2013-08-14 00:34:00,
2013-08-13 20:49:00,82.9,75.0,30.00,ESE,117,0.0,-999.0,78,-99.99,,,0.00,0,weatherlink.com 1.10,2013-08-14 00:49:00,
2013-08-13 21:04:00,82.7,76.0,30.00,ESE,110,0.0,-999.0,79,-99.99,,,0.00,0,weatherlink.com 1.10,2013-08-14 01:04:00,
2013-08-13 21:19:00,82.5,75.0,30.00,SE,125,0.0,-999.0,79,-99.99,,,0.00,0,weatherlink.com 1.10,2013-08-14 01:19:00,
2013-08-13 21:34:00,82.5,75.0,30.00,ESE,117,0.0,-999.0,79,-99.99,,,0.00,0,weatherlink.com 1.10,2013-08-14 01:34:00,
2013-08-13 21:49:00,82.3,76.0,30.01,ESE,117,0.0,-999.0,80,-99.99,,,0.00,0,weatherlink.com 1.10,2013-08-14 01:49:00,
2013-08-13 22:04:00,82.2,76.0,30.01,ESE,117,0.0,-999.0,80,-99.99,,,0.00,0,weatherlink.com 1.10,2013-08-14 02:04:00,
2013-08-13 22:19:00,82.0,76.0,30.02,ESE,117,0.0,-999.0,81,-99.99,,,0.00,0,weatherlink.com 1.10,2013-08-14 02:19:00,
2013-08-13 22:34:00,82.0,76.0,30.02,ESE,117,0.0,-999.0,81,-99.99,,,0.00,0,weatherlink.com 1.10,2013-08-14 02:34:00,
2013-08-13 22:49:00,82.0,76.0,30.01,ESE,104,0.0,-999.0,81,-99.99,,,0.00,0,weatherlink.com 1.10,2013-08-14 02:49:00,
2013-08-13 23:04:00,82.0,76.0,30.02,ESE,104,0.0,-999.0,81,-99.99,,,0.00,0,weatherlink.com 1.10,2013-08-14 03:04:00,
2013-08-13 23:19:00,82.0,76.0,30.01,ESE,104,0.0,-999.0,81,-99.99,,,0.00,0,weatherlink.com 1.10,2013-08-14 03:19:00,
2013-08-13 23:34:00,82.0,76.0,30.02,ESE,104,1.0,-999.0,82,-99.99,,,0.00,0,weatherlink.com 1.10,2013-08-14 03:34:00,
2013-08-13 23:49:00,81.9,76.0,30.02,ESE,104,0.0,-999.0,81,-99.99,,,0.00,0,weatherlink.com 1.10,2013-08-14 03:49:00,